Regional Weather Roundup
Issued by NWS Grand Forks, ND

Home | Current Version | Previous Version | Text Only | Print | Product List | Glossary Off
Versions: 1 2 3 4 5 6 7 8 9 10 11 12 13 14 15 16 17 18 19 20 21 22 23 24 25 26 27 28 29 30 31 32 33 34 35 36 37 38 39 40 41 42 43 44 45 46 47 48 49 50

000
ASUS43 KFGF 281310
RWRFGF
PRAIRIE TO PINES  WEATHER ROUNDUP
NATIONAL WEATHER SERVICE EASTERN NORTH DAKOTA/GRAND FORKS ND
700 AM CST SUN DEC 28 2014

 **SATELLITE DATA USED TO AUGMENT SKY COVER AT AUTOMATED STATIONS**
 *****  WEATHER ACROSS EASTERN NORTH DAKOTA  *****

CITY           SKY/WX    TMP DP  RH WIND       PRES   REMARKS
GRAND FORKS    FAIR      -9 -13  83 N10       30.27R WCI -27
GRAND FRKS AFB CLEAR     -8 -12  82 N9        30.26R WCI -26
GRAND FRKS NWS   N/A     -8 N/A N/A N7          N/A  WCI -22
DEVILS LAKE    CLOUDY    -2  -9  71 E9        30.18R WCI -18
FARGO          CLOUDY     2  -8  63 N14       30.22R WCI -16
WAHPETON ARPT  CLOUDY    12   5  73 N16G24    30.16R WCI  -4
$$

 ***** WEATHER ACROSS CENTRAL AND WESTERN NORTH DAKOTA  *****

CITY           SKY/WX    TMP DP  RH WIND       PRES   REMARKS
BISMARCK       LGT SNOW  14  10  84 E10       30.10R FOG     WCI   1
MINOT          CLOUDY    -5 -11  75 N9        30.14R WCI -22
JAMESTOWN      CLOUDY     6   1  80 NE13      30.14R WCI -10
MINOT AFB      CLOUDY    -8 -12  84 N8        30.16R WCI -24
GARRISON         N/A      7   3  84 NE7       30.09R WCI  -5
WILLISTON      CLOUDY    13   8  81 NE8       30.06R WCI   2
DICKINSON      CLOUDY    18  14  84 E12       29.95R WCI   5
HETTINGER      CLEAR      5   0  79 CALM      29.96R
$$

 *****  OTHER AIRPORT OBSERVATIONS IN OUR AREA  *****

CITY           SKY/WX    TMP DP  RH WIND       PRES   REMARKS
WALHALLA         N/A    -13 -17  84 NW5       30.28R WCI -25
GRAFTON AIRPOR NOT AVBL
VALLEY CITY AR CLOUDY     3   1  92 NE12      30.16R WCI -13
CANDO          CLOUDY    -2  -4  92 N7        30.20R WCI -16
CAVALIER APRT  FAIR      -9 -15  77 NW5       30.28R WCI -21
GWINNER        CLOUDY    12   9  85 NE17      30.16R WCI  -5
ROLLA          FAIR     -13 -18  77 NE5       30.17R WCI -25
 ***** THE ABOVE OBSERVATIONS ARE NON NWS ARE NOT QUALITY
       CONTROLLED AND MAY MIS-REPORT RAIN FOR SNOW...
$$

  *****  WEATHER ACROSS NORTHERN MINNESOTA  *****

CITY           SKY/WX    TMP DP  RH WIND       PRES   REMARKS
FLAG ISLAND    CLEAR    -11 -17  77 NW14      30.17R WCI -33
WARROAD        CLEAR     -9 -15  77 NW7       30.19R WCI -24
ROSEAU         CLEAR     -8 -13  77 NW6       30.21R WCI -21
HALLOCK        CLEAR    -11 -17  77 N8        30.26R WCI -28
THF RVR FALLS  CLEAR     -8  -9  92 NW7       30.20R WCI -22
BAUDETTE       CLEAR     -6 -11  79 NW9       30.16R WCI -23
WASKISH        MOCLDY    -2  -6  84 CALM      30.16R
CROOKSTON      CLEAR     -8 -13  77 N12       30.25R WCI -27
STEPHEN NDAWN    N/A    -11 -17  77 N7          N/A  WCI -26
GREENBUSH NDAW   N/A    -11 -15  84 NW6         N/A  WCI -25
$$
  *****  WEATHER ACROSS CENTRAL AND WEST MINNESOTA  *****

CITY           SKY/WX    TMP DP  RH WIND       PRES   REMARKS
FOSSTON        MOCLDY    -6  -8  92 CALM      30.17R
BEMIDJI        CLEAR     -4  -8  85 NW3       30.14R
PARK RAPIDS    FAIR       9   3  77 N12       30.09R WCI  -6
ELBOW LAKE     CLOUDY    18  16  93 N8        30.10R WCI   8
WADENA         CLOUDY    16  10  79 N10       30.08R WCI   3
DETROIT LAKES  FLURRIES   5   1  85 N10       30.14R WCI -10
MOORHEAD       CLOUDY     3  -2  78 N18       30.21R WCI -17
FERGUS FALLS   CLOUDY    16   9  73 N8        30.16R WCI   5
MORRIS MN      MOCLDY    18  16  93 N14       30.09R FOG     WCI   4
STAPLES        CLOUDY    16  10  79 N10       30.08R WCI   3
$$
  *****  WEATHER ELSEWHERE ACROSS MINNESOTA  *****

CITY           SKY/WX    TMP DP  RH WIND       PRES   REMARKS
DULUTH         FLURRIES  13   7  77 NW7       30.03R WCI   3
INTRNTL FALLS  CLEAR     -5 -10  79 W5        30.13R WCI -16
ELY            PTCLDY     1  -2  85 NW8       30.05R WCI -12
CLOQUET        MOCLDY    16   9  73 NW6       30.05R WCI   7
WHEATON        CLOUDY    14  10  85 NW10      30.16R WCI   1
BRAINERD       MOCLDY    17  11  77 N8        30.09R WCI   7
HIBBING        MOCLDY     4  -3  73 NW14      30.07R WCI -14
ALEXANDRIA     CLOUDY    18  16  92 NW6       30.08R WCI  10
SAINT CLOUD    MOCLDY    18  12  77 CALM      30.08R
MINNEAPOLIS    CLEAR      9   6  88 SW5       30.11R WCI   1
$$

  *****  WEATHER ACROSS SOUTH DAKOTA  *****

CITY           SKY/WX    TMP DP  RH WIND       PRES   REMARKS
SIOUX FALLS    PTCLDY    -1  -5  82 CALM      30.09S
BROOKINGS      NOT AVBL
WATERTOWN      CLOUDY     3   0  87 CALM      30.06R
HURON          PTCLDY    -1  -4  87 CALM      30.09S
SISSETON         N/A     15  14  95 N13       30.12R WCI   1
ABERDEEN       CLOUDY    16  12  84 N5        30.11R WCI   9
MITCHELL       PTCLDY     5   3  91 W3        30.10S
PIERRE         PTCLDY     3   1  91 CALM      30.04R
MOBRIDGE       CLOUDY    12   9  87 E5        30.02R WCI   4
RAPID CITY     MOCLDY     7   2  80 NW5       29.92F WCI  -2
$$

  *****  SOME WEATHER IN NEARBY STATES *****

CITY           SKY/WX    TMP DP  RH WIND       PRES   REMARKS
GLASGOW MT     CLOUDY    19  15  84 E18       29.96R WCI   4
GREAT FALLS MT CLOUDY    24  22  91 NW9       29.84R WCI  14
CHEYENNE WY    CLOUDY    21   4  47 W6        29.88F WCI  13
SCOTTSBLUFF NE MOCLDY     6   2  83 E5        29.96F WCI  -3
OMAHA NE       CLEAR     16  13  88 SE6       30.15S WCI   7
DES MOINES IA  PTCLDY    16  11  80 S5        30.16S WCI   9
DAVENPORT IA   CLEAR     17  12  80 W6        30.18S WCI   9
CHICAGO IL     PTCLDY    22  18  85 W6        30.14F WCI  14
EAU CLAIRE WI  CLEAR      9   6  88 SW3       30.09S
LA CROSSE WI   CLEAR     14   9  80 S8        30.14S WCI   3
$$

  *****  SOME NATIONAL WEATHER *****

CITY           SKY/WX    TMP DP  RH WIND       PRES   REMARKS
LA GUARDIA NY  LGT RAIN  46  40  79 S6        29.91F
RALEIGH NC     CLOUDY    54  48  80 SW8       30.06F
ATLANTA GA     LGT RAIN  56  54  93 S12       30.09R FOG
NEW ORLEANS LA MOCLDY    67  65  93 S5        30.08R FOG
OKLAHOMA CITY  MOCLDY    22  17  81 S3        30.23S
ALBUQUERQUE NM CLEAR     18   8  65 CALM      30.22R
SALT LAKE CITY CLOUDY    27  15  61 S10       30.10S WCI  17
LOS ANGELES CA PTCLDY    45  22  40 CALM      30.25F
BOISE ID       MOCLDY    26  24  92 SE3       30.06R
SEATTLE WA     LGT RAIN  40  38  93 NE9       30.14R
$$

*** WEATHER ACROSS MANITOBA...SASKATCHEWAN AND ONTARIO ***
                ***ONTARIO***

CITY           SKY/WX    TMP DP  RH WIND       PRES   REMARKS
GERALDTON      MOCLDY    -2  -8  78 NW10      29.93R WCI -19
THUNDER BAY    MOCLDY    10   0  61 W12       30.04R WCI  -4
SIOUX LOOKOUT  FLURRIES  -9 -15  77 NW10      30.06R WCI -28
TORONTO        CLOUDY    34  23  64 NW21G28   29.99R WCI  22
BIG TROUT LK   PTCLDY   -20 -26  76 W12       29.96R WCI -42
PICKLE LAKE    PTCLDY   -15 -22  70 W10G17    29.97R WCI -35
DRYDEN         CLEAR    -15 -20  76 W9        30.08R WCI -33
KENORA         CLEAR    -17 -22  76 NW7       30.13R WCI -33
$$
                *** MANITOBA***

CITY           SKY/WX    TMP DP  RH WIND       PRES   REMARKS
BRANDON        FLURRIES  -8 -13  77 N2        30.24R
DAUPHIN        CLEAR    -27 -35  68 SW6       30.28R WCI -44
ISLAND LAKE    PTCLDY   -24 -29  76 NW8       30.12R WCI -43
PILOT MOUND      N/A    -15 -18  84 N2          N/A
THE PAS        NOT AVBL
THOMPSON       CLEAR    -24 -31  69 NW7       30.22R WCI -42
WINNIPEG       CLEAR    -18 -26  69 W5        30.29R WCI -31
CHURCHILL      CRYSTALS -15 -22  70 NW18      30.15R WCI -41
GILLAM         CLEAR    -22 -29  69 W8        30.14R WCI -41
$$
                ***SASKATCHEWAN***

CITY           SKY/WX    TMP DP  RH WIND       PRES   REMARKS
ESTEVAN        CLOUDY    -4  -9  77 E10       30.14R WCI -21
KINDERSLEY     NOT AVBL
LLOYDMINSTER   MOCLDY   -13 -18  77 NE5       30.24R WCI -25
PRINCE ALBERT  CLEAR    -27 -33  75 W5        30.32R WCI -42
REGINA         PTCLDY   -13 -18  77 N3        30.17R
YORKTON        CLEAR    -20 -26  76 W5        30.22R WCI -33
N. BATTLEFORD  CLEAR    -20 -26  76 N5        30.29R WCI -33
LA RONGE       CLEAR    -33 -40  68 W2        30.37R
SASKATOON      PTCLDY   -20 -26  76 NE8       30.28R WCI -39
SWIFT CURRENT  FLURRIES   7   3  85 E10       30.04R WCI  -8
$$
NOTE: THESE ARE AUTOMATED STATIONS WITH LIMITED QUALITY CONTROL
      "FAIR" INDICATES FEW OR NO CLOUDS BELOW 12,000 FEET WITH NO
      SIGNIFICANT WEATHER AND/OR OBSTRUCTIONS TO VISIBILITY.
      SKY/WX - SKY CONDITION AND SIGNIFICANT WEATHER.
      TMP - AIR TEMPERATURE.    DP   - DEWPOINT TEMPERATURE.
      RH  - RELATIVE HUMIDITY.  PRES - PRESSURE.
      HX  - HEAT INDEX.         WCI  - WIND CHILL INDEX.
$



USA.gov is the U.S. government's official web portal to all federal, state and local government web resources and services.